Location: Ammersricht
(49.4718°N, 11.8595°E)
Time: 06:36:29
(UTC+00:00)

Daily predictions for brighter satellites

Satellite Brightness Start Highest point End
(mag) Time Altitude Azimuth Time Altitude Azimuth Time Altitude Azimuth
Cosmos 1697 Rocket 3.1 19:09:45 10° NNW 19:15:15 52° NE 19:20:43 10° SE
MetOp-A 4.3 19:10:32 10° SSE 19:15:54 80° WSW 19:21:18 10° NNW
Cosmos 2228 Rocket 3.1 19:12:24 10° N 19:16:51 88° ENE 19:21:16 10° S
Cosmos 1833 Rocket 3.4 19:12:21 10° SSE 19:17:16 32° ESE 19:22:13 10° NE
Cosmos 389 Rocket 2.5 19:16:30 10° N 19:19:54 58° ENE 19:23:18 10° SSE
Cosmos 1812 2.9 19:18:00 10° N 19:21:48 53° ENE 19:25:33 10° SSE
Cosmos 1727 Rocket 4.1 19:15:28 10° N 19:21:53 89° W 19:28:14 10° S
SPOT 3 Rocket 3.6 19:16:52 10° SSE 19:22:05 84° ENE 19:27:19 10° NNW
Cosmos 1633 Rocket 4.4 19:19:11 10° SE 19:22:34 22° E 19:25:58 10° NE
Cosmos 2251 Rocket 3.6 19:18:53 10° SSW 19:24:09 89° WNW 19:29:30 10° NNE
Cosmos 1656 3.7 19:21:24 10° NNW 19:26:55 82° WSW 19:32:26 10° SSE
Cosmos 1707 Rocket 3.9 19:27:01 10° N 19:31:14 46° ENE 19:35:25 10° SSE
Cosmos 220 Rocket 3.9 19:27:14 10° NNW 19:31:29 79° ENE 19:35:41 10° SSE
Cosmos 1633 4.2 19:28:27 10° SW 19:31:45 37° WNW 19:35:04 10° N
IRIDIUM 104 4.3 19:27:09 10° S 19:32:20 70° E 19:37:33 10° N
Resurs 01 Rocket 1.6 19:28:47 10° SSE 19:33:11 76° ENE 19:37:37 10° N
Cosmos 972 Rocket 4.4 19:28:17 10° NNW 19:33:16 61° WSW 19:38:04 10° S
Landsat 7 4.5 19:30:19 10° SE 19:34:45 41° ENE 19:39:13 10° N
Cosmos 1441 Rocket 3.2 19:35:10 10° S 19:38:53 59° E 19:42:37 10° NNE
IRIDIUM 114 4.3 19:36:16 10° S 19:41:28 83° E 19:46:44 10° N
Cosmos 2360 4.4 19:36:33 10° NNW 19:42:17 63° ENE 19:47:32 12° SE
Cosmos 614 Rocket 4.0 19:37:34 10° S 19:42:38 61° ESE 19:47:46 10° NNE
IGS 5A 3.9 19:41:07 11° SE 19:44:51 46° ENE 19:48:50 10° N
Cosmos 1900 4.4 19:41:04 10° SW 19:46:01 88° NW 19:51:06 10° NE
USA 267 3.3 19:40:51 10° ENE 19:47:19 59° SE 19:53:45 10° SW
GP-B 3.8 19:45:35 10° NNE 19:49:42 36° E 19:53:14 13° SSE
IRIDIUM 103 4.4 19:45:23 10° S 19:50:36 83° W 19:55:52 10° N
Cosmos 1821 Rocket 4.0 19:46:45 10° S 19:52:51 79° E 19:59:07 10° NNE
COSMOS 2406 3.2 19:49:18 10° SSW 19:55:03 83° ESE 20:00:50 10° NNE
Shenzhou-11 Module 3.4 19:53:38 10° SW 19:55:08 15° S 19:55:30 15° S
Cosmos 921 Rocket 4.2 19:51:34 10° N 19:55:17 29° ENE 19:58:03 15° ESE
CZ-2C R/B 4.0 19:50:56 10° N 19:55:36 73° WNW 20:00:08 10° SSW
Intercosmos 25 3.7 19:52:59 10° NNW 19:57:45 69° W 20:01:08 10° S
SL-16 R/B 3.7 19:53:04 10° NNW 19:57:45 25° NE 20:02:24 10° E
Cosmos 1862 Rocket 4.1 19:53:28 10° N 19:57:46 44° ENE 20:01:00 16° SE
ERS-1 Rocket 3.6 19:56:08 15° SE 19:59:56 40° ENE 20:04:37 10° N
Lacrosse 5 2.8 19:56:19 10° NW 20:01:10 43° NNE 20:06:01 10° E
Cosmos 2369 3.8 19:57:21 10° NNW 20:03:08 84° WSW 20:08:05 14° SSE
Cosmos 1862 4.1 20:00:15 10° SSW 20:04:13 54° WNW 20:08:14 10° N
Sich 1 3.1 20:00:39 10° S 20:05:05 85° W 20:09:34 10° N
Cosmos 1818 4.0 20:02:32 10° NW 20:07:54 58° WSW 20:12:24 14° SSE
BREEZE-M DEB (TANK) 1.5 20:06:01 10° W 20:08:52 87° S 20:09:54 24° E
Cosmos 2082 Rocket 2.4 20:04:45 10° S 20:10:12 49° ESE 20:15:40 10° NE
Cosmos 1954 Rocket 4.5 20:07:05 10° S 20:12:01 40° ESE 20:16:59 10° NE
Cosmos 2278 3.7 20:06:40 10° NNW 20:12:26 81° ENE 20:16:44 18° SSE
Cosmos 2123 Rocket 4.0 20:06:13 10° N 20:12:27 80° E 20:18:06 13° SSE
Meteor 2-20 4.5 20:08:02 10° N 20:14:15 88° W 20:20:08 11° S
Spot 2 Rocket 3.5 20:11:25 14° SSE 20:15:53 89° WSW 20:21:01 10° NNW
Cosmos 1535 Rocket 4.4 20:09:53 10° S 20:15:59 70° E 20:22:04 10° NNE
Meteor 1-4 Rocket 2.4 20:16:43 10° NNW 20:20:13 80° W 20:22:27 21° S
Cosmos 2322 Rocket 3.5 20:15:23 10° NNW 20:20:19 29° NE 20:24:25 14° E
Cosmos 1184 Rocket 3.0 20:21:01 25° SSE 20:22:38 50° E 20:25:52 10° NNE
CARTOSAT-1 3.7 20:20:05 22° SE 20:22:42 57° ENE 20:26:57 10° N
Cosmos 1190 Rocket 4.0 20:17:42 10° SSW 20:22:58 79° ESE 20:28:17 10° NNE
CZ-2C R/B 4.4 20:18:30 10° N 20:23:04 32° WNW 20:27:38 10° SW
USA 234 3.3 20:18:46 18° SE 20:23:49 78° SW 20:30:24 10° WNW
Terra 2.5 20:21:08 21° SE 20:23:52 41° ENE 20:28:19 10° N
Cosmos 407 Rocket 3.6 20:20:35 10° SSW 20:25:55 83° WNW 20:31:15 10° NNE
Cosmos 1933 Rocket 4.2 20:24:16 24° SE 20:26:18 37° E 20:30:23 10° NNE
Cosmos 1605 Rocket 4.1 20:21:08 14° SSE 20:26:19 57° E 20:32:16 10° NNE
Cosmos 1666 Rocket 3.6 20:22:23 10° SSW 20:26:42 76° W 20:31:03 10° N
Meteor 1-20 Rocket 4.4 20:23:25 15° SSE 20:28:09 55° E 20:33:51 10° NNE
Cosmos 1238 Rocket 2.7 20:28:02 33° ESE 20:28:33 37° E 20:31:20 10° NNE
Okean 1 3.9 20:25:54 10° N 20:29:46 42° ENE 20:31:27 27° SE
Meteor 1-27 Rocket 4.5 20:25:05 10° NNW 20:30:50 54° W 20:36:35 10° S
Cosmos 1602 4.4 20:31:37 28° SE 20:32:51 36° E 20:36:29 10° NNE
ATLAS 3B R/B 4.5 20:34:00 10° E 20:34:00 10° E 20:34:20 10° E
Cosmos 1437 Rocket 3.7 20:30:47 10° N 20:34:15 32° ENE 20:35:27 26° ESE
Cosmos 2360 Rocket 3.9 20:29:52 10° N 20:34:21 23° NE 20:38:35 11° E
CZ-4B DEB 4.3 20:35:36 33° SSE 20:37:00 87° ENE 20:40:22 10° NNW
SPOT 5 2.6 20:35:54 27° SSE 20:38:11 70° ENE 20:42:31 10° N
ERBS 4.4 20:35:29 10° W 20:38:26 28° NNW 20:41:23 10° NE
USA 238 DEB 3.9 20:32:40 10° SSW 20:38:56 47° ESE 20:45:28 10° NE
USA 238 3.9 20:32:48 10° S 20:39:02 47° ESE 20:45:34 10° NE
Meteor 1-19 Rocket 4.4 20:33:59 10° N 20:39:19 55° ENE 20:42:13 26° SE
Iridium 4 Rocket 4.5 20:41:58 21° E 20:42:51 22° E 20:46:08 10° NNE
Cosmos 1980 Rocket 2.4 20:37:54 10° NNW 20:43:34 69° WSW 20:47:05 23° SSE
SPOT 1/Viking Rocket 3.9 20:39:53 18° S 20:43:48 65° WSW 20:49:02 10° NNW
Cosmos 1703 Rocket 3.9 20:41:13 10° N 20:45:28 49° ENE 20:47:06 32° SE
Cosmos 2242 Rocket 3.6 20:41:04 10° N 20:45:32 66° ENE 20:47:29 32° SSE
Cosmos 1763 Rocket 3.8 20:43:16 10° NNW 20:48:31 56° ENE 20:51:08 28° SE
SL-4 R/B 1.7 20:45:11 10° SW 20:49:01 61° SSE 20:51:35 18° ENE
Genesis I 3.5 20:45:33 10° NW 20:49:22 57° SW 20:50:44 35° S
BREEZE-M DEB (TANK) 2.8 20:46:45 10° W 20:49:46 90° S 20:58:47 10° E
Cosmos 405 Rocket 2.7 20:49:21 40° SSE 20:50:24 57° E 20:54:05 10° NNE
Cosmos 1140 Rocket 3.9 20:46:24 10° SSW 20:51:37 66° WNW 20:56:52 10° NNE
ATLAS 5 CENTAUR R/B 4.2 20:47:45 10° WNW 20:52:06 21° WSW 20:56:52 10° SSW
Cosmos 2333 Rocket 4.4 20:50:21 10° N 20:54:09 18° NE 20:57:57 10° ENE
FAST 4.4 20:51:49 10° N 20:54:38 62° ENE 20:54:41 62° E
USA 32 4.2 20:53:02 15° SSW 20:57:23 73° W 21:02:39 10° N
Cosmos 1697 Rocket 4.1 20:54:08 10° NW 20:58:58 30° WSW 21:03:04 13° SSW
Cosmos 1633 Rocket 4.2 20:55:52 10° SSW 21:00:06 43° WNW 21:04:20 10° N
Cosmos 1833 Rocket 3.6 20:55:34 10° SW 21:01:00 49° NW 21:06:30 10° NNE
Meteor 1-18 Rocket 4.2 21:01:20 10° NNW 21:06:59 84° W 21:09:50 30° S
Cosmos 1153 Rocket 4.4 21:03:26 25° S 21:07:10 74° E 21:13:20 10° NNE
Okean 1-7 3.0 21:02:50 10° N 21:07:12 72° ENE 21:08:30 43° SSE
Cosmos 1867 3.5 21:01:56 10° SW 21:07:22 89° SE 21:12:53 10° NE
CENTAUR R/B 2.8 21:04:46 28° SSE 21:07:28 43° ESE 21:13:58 10° NE
Resurs 01 Rocket 4.2 21:08:00 10° WSW 21:10:14 14° W 21:12:28 10° WNW
Okean 3 4.3 21:09:11 10° N 21:13:10 36° ENE 21:13:59 33° E
FALCON 9 DEB 3.0 21:11:12 10° WSW 21:14:42 77° SSE 21:15:22 55° E
Cosmos 1850 Rocket 4.1 21:14:18 36° SSE 21:16:15 56° ESE 21:21:25 10° NNE
Meteor 2-4 Rocket 3.7 21:10:58 10° N 21:16:41 68° ENE 21:18:53 37° SSE
Cosmos 1515 3.6 21:13:45 10° NNW 21:17:37 83° WSW 21:18:22 55° S
SL-27 R/B 3.9 21:19:37 24° ENE 21:19:37 24° ENE 21:21:25 10° NE
Cosmos 44 3.8 21:16:20 10° NNW 21:21:05 54° NE 21:23:08 32° ESE
ATLAS 5 CENTAUR R/B 2.4 21:18:49 10° NW 21:21:22 52° NE 21:23:25 29° ESE
SWARM C 4.4 21:19:15 10° N 21:22:37 81° W 21:22:47 76° SW
SWARM A 4.2 21:19:21 10° N 21:22:41 72° W 21:22:57 67° SW
Spot 4 4.5 21:27:26 35° ESE 21:28:46 43° ENE 21:33:19 10° N
USA 267 3.7 21:23:57 10° ENE 21:30:25 64° NNW 21:36:52 10° WSW
NOSS 3-2 (A) 3.4 21:27:41 10° SW 21:33:27 88° NW 21:40:10 10° NE
Cosmos 921 Rocket 4.2 21:29:47 10° NW 21:33:35 33° W 21:34:51 27° SW
ERS-1 Rocket 4.3 21:36:09 20° SW 21:38:49 32° W 21:43:18 10° NNW
NOSS 3-2 (C) 3.3 21:35:51 25° SSW 21:39:21 70° SE 21:45:55 10° NE
Cosmos 841 Rocket 3.5 21:35:17 10° NNW 21:40:32 78° ENE 21:42:00 48° SE
Cosmos 540 Rocket 3.4 21:36:47 10° NNW 21:41:59 77° ENE 21:43:22 49° SE
SL-16 R/B 2.2 21:36:47 10° NNW 21:42:29 77° WSW 21:44:17 45° S
Lacrosse 5 1.8 21:39:22 10° WNW 21:44:27 73° SW 21:45:31 54° SSE
Cosmos 1741 Rocket 4.0 21:48:23 35° SSW 21:50:40 83° WNW 21:56:00 10° NNE
Cosmos 1570 Rocket 4.0 21:46:28 10° NNW 21:51:49 85° WSW 21:53:10 52° SSE
Tsikada Rocket 4.2 21:46:30 10° N 21:52:49 59° ENE 21:54:55 40° SE
Cosmos 2219 Rocket 3.6 21:48:31 10° NNW 21:53:32 31° NE 21:56:38 19° E
Cosmos 2208 Rocket 3.9 21:48:37 10° NNW 21:53:57 86° ENE 21:55:11 54° SSE
Cosmos 1814 Rocket 3.9 21:49:05 10° NNW 21:54:19 82° ENE 21:55:32 54° SE
Cosmos 2082 Rocket 3.7 21:49:17 10° WSW 21:54:29 35° NW 21:59:41 10° NNE
Cosmos 2084 Rocket 4.0 21:59:01 43° E 21:59:01 43° E 22:02:14 10° NE
Cosmos 2237 4.2 21:53:10 10° NNW 21:58:55 76° ENE 22:00:34 48° SE
Terra 3.3 22:00:02 23° SW 22:01:43 28° W 22:05:51 10° NW
Cosmos 2322 Rocket 2.3 21:59:10 10° NNW 22:04:49 64° WSW 22:06:13 48° S
EO 1 Del DPAF 4.0 22:02:02 10° NNE 22:04:57 41° ENE 22:04:57 41° ENE
USA 234 4.4 22:06:06 24° SSW 22:07:31 26° SW 22:12:53 10° WNW
Cosmos 2100 Rocket 4.2 22:05:35 32° SSW 22:08:32 65° WNW 22:14:40 10° N
Cosmos 1437 Rocket 4.5 22:07:21 10° NW 22:10:20 22° W 22:10:50 21° WSW
Meteor 1-11 Rocket 3.6 22:09:09 53° S 22:10:30 77° E 22:16:16 10° NNE
Cosmos 1242 Rocket 3.2 22:09:05 10° N 22:12:07 51° NE 22:12:07 51° NE
Cosmos 1869 Rocket 4.4 22:13:01 37° WSW 22:14:11 46° WNW 22:18:30 10° N
Cosmos 2360 Rocket 2.1 22:13:23 10° NNW 22:19:06 86° WSW 22:20:19 57° SSE
COSMOS 2428 3.7 22:14:41 10° NNW 22:20:06 40° NE 22:22:36 27° E
Geosat 4.4 22:20:48 45° SW 22:21:27 48° WSW 22:26:19 10° NW
ATLAS 3B R/B 2.7 22:21:12 48° SSE 22:22:24 55° ESE 22:28:52 10° NE
Iridium 4 Rocket 4.0 22:21:45 35° WSW 22:22:38 39° W 22:26:38 10° N
Cosmos 2173 Rocket 4.5 22:21:11 29° SW 22:24:10 54° WNW 22:30:11 10° N
CRYOSAT 2 4.5 22:21:02 10° N 22:25:54 69° W 22:26:46 56° SW
ALOS 2 2.5 22:27:44 77° E 22:27:52 78° ENE 22:32:17 10° NNW
SL-4 R/B 3.0 22:24:57 10° W 22:27:13 33° WNW 22:27:13 33° WNW
Cosmos 1725 Rocket 4.0 22:27:20 46° SSW 22:29:21 83° W 22:35:44 10° N
USA 238 DEB 4.4 22:23:19 10° WSW 22:29:52 53° NW 22:36:43 10° NE
USA 238 4.4 22:23:26 10° WSW 22:29:58 53° NW 22:36:49 10° NE
Nimbus 7 Rocket 4.4 22:25:16 10° NNE 22:31:07 65° ESE 22:32:15 54° SSE
Cosmos 1674 Rocket 3.4 22:28:55 10° N 22:33:13 87° NNE 22:33:13 87° NNE
SL-08 R/B 4.5 22:32:19 46° SSW 22:34:13 75° W 22:40:20 10° N
Cosmos 1536 3.0 22:34:39 67° NW 22:34:39 67° NW 22:38:25 10° N
Cosmos 1666 3.4 22:37:32 48° WNW 22:37:32 48° WNW 22:40:55 10° N
Cosmos 1743 3.6 22:38:17 42° NE 22:38:17 42° NE 22:41:18 10° NNE
Cosmos 2333 Rocket 2.5 22:33:54 10° NNW 22:39:40 63° ENE 22:41:19 44° ESE
Cosmos 1271 Rocket 3.3 22:37:37 10° N 22:40:47 53° NNE 22:40:47 53° NNE
Cosmos 2016 Rocket 4.4 22:39:51 36° SW 22:42:22 58° WNW 22:48:41 10° N
Cosmos 2237 Rocket 3.9 22:38:48 10° NNW 22:43:40 28° NE 22:47:33 14° E
Cosmos 2061 Rocket 4.4 22:41:23 36° SW 22:43:46 56° WNW 22:49:54 10° N
Lacrosse 4 Rocket 2.5 22:45:23 35° ENE 22:45:23 35° ENE 22:48:12 10° NE
MOS 1-B Rocket 4.4 22:38:49 10° N 22:44:22 52° WNW 22:46:43 32° SW
Cosmos 1733 Rocket 3.4 22:50:59 56° W 22:51:11 57° WNW 22:55:33 10° N
Meteor 2-11 Rocket 4.4 22:51:23 56° SSE 22:52:36 71° E 22:58:41 10° NNE
Cosmos 1066 Rocket 4.4 22:47:09 10° NNW 22:52:47 58° W 22:53:46 50° SW
Meteor 1-23 Rocket 4.5 22:48:51 10° NNW 22:54:36 60° W 22:55:42 50° SW
Thor Agena Rocket 4.0 22:50:43 10° N 22:55:39 52° WNW 22:57:00 40° WSW
Cosmos 44 Rocket 3.9 22:51:09 10° NNW 22:56:02 53° NE 22:57:31 39° E
Cosmos 836 Rocket 4.3 22:52:15 10° NNW 22:57:30 88° ENE 22:58:03 72° SSE
CENTAUR R/B 3.3 22:51:52 10° WSW 22:57:59 55° NW 23:05:17 10° NE
Cosmos 968 Rocket 3.5 22:59:01 60° ESE 22:59:05 60° ESE 23:04:09 10° NNE
Cosmos 1975 3.7 23:02:22 40° ENE 23:02:22 40° ENE 23:05:33 10° NNE
SL-24 DEB 4.1 23:00:19 10° N 23:05:09 81° E 23:05:18 79° SE
Cosmos 1782 Rocket 4.0 23:10:37 51° ENE 23:10:37 51° ENE 23:14:31 10° NNE
USA 267 4.2 23:06:45 10° ENE 23:12:56 46° N 23:19:06 10° WNW
Cosmos 1378 4.4 23:09:45 10° NNW 23:12:29 36° WNW 23:12:29 36° WNW
Cosmos 1707 4.2 23:12:46 10° N 23:16:13 30° ENE 23:16:13 30° ENE
Cosmos 2233 Rocket 4.3 23:14:31 42° SW 23:16:26 59° WNW 23:22:43 10° N
Cosmos 1464 Rocket 4.1 23:15:36 50° SE 23:16:58 61° E 23:23:05 10° NNE
Cosmos 1842 3.7 23:14:20 10° N 23:17:41 62° N 23:17:41 62° N
Cosmos 1908 Rocket 3.6 23:18:33 74° WNW 23:18:33 74° WNW 23:22:48 10° N
Helios 1B rocket 3.8 23:18:41 10° NNE 23:21:48 30° E 23:21:48 30° E
CZ-4 R/B 4.4 23:17:56 10° NNE 23:22:45 46° E 23:23:00 46° ESE
Cosmos 2227 Rocket 4.0 23:22:42 17° ESE 23:23:18 17° E 23:26:51 10° ENE
Meteor 1-21 4.2 23:18:21 10° N 23:24:13 80° ENE 23:25:21 59° SSE
SL-16 R/B 4.3 23:23:04 10° WNW 23:25:36 13° W 23:26:08 13° WSW
Lacrosse 5 4.0 23:23:29 10° W 23:24:41 14° W 23:24:41 14° W
Cosmos 2322 4.0 23:23:49 10° NW 23:29:14 48° WSW 23:29:31 48° WSW
COSMOS 2487 4.0 23:32:14 31° NW 23:32:14 31° NW 23:34:52 10° N
Nadezhda 4 Rocket 4.1 23:29:57 10° N 23:36:17 71° E 23:38:03 48° SE
Cosmos 2219 Rocket 2.2 23:32:17 10° NW 23:37:52 59° WSW 23:38:19 57° SW
Cosmos 783 Rocket 4.3 23:36:33 10° NNW 23:41:49 84° WSW 23:42:23 71° S
Cosmos 1975 Rocket 3.2 23:38:08 10° NNW 23:42:25 67° WNW 23:42:25 67° WNW
Cosmos 1513 Rocket 4.5 23:42:38 54° SSW 23:44:16 85° W 23:50:44 10° N
Okean 2 Rocket 3.6 23:45:22 49° E 23:45:24 49° E 23:49:45 10° NNE
Cosmos 2034 Rocket 4.0 23:43:53 51° SSE 23:45:26 71° E 23:51:44 10° NNE
Cosmos 1503 Rocket 3.9 23:45:55 66° SW 23:46:43 84° WNW 23:52:08 10° NNE
Cosmos 2322 Rocket 4.5 23:46:40 10° W 23:47:43 10° W 23:48:01 10° W
Cosmos 1072 Rocket 4.4 23:46:51 54° SSW 23:48:17 77° W 23:54:25 10° N
Helios 1A 4.0 23:49:48 36° WNW 23:49:48 36° WNW 23:53:09 10° NNW
Landsat 4 4.1 23:45:58 10° NNE 23:49:11 62° N 23:49:11 62° N
SL-16 R/B 3.6 23:46:15 18° ESE 23:50:23 40° ENE 23:56:08 10° N
Cosmos 1092 Rocket 4.3 23:44:16 10° N 23:50:28 58° ENE 23:52:45 37° SE
ERBS 4.1 23:49:07 10° NW 23:51:02 29° NNW 23:51:02 29° NNW
Cosmos 1300 Rocket 3.9 23:52:28 53° E 23:52:28 53° E 23:56:37 10° NNE
GEOS 3 Rocket 4.5 23:48:11 10° NE 23:53:07 35° ESE 23:53:18 35° SE
CZ-2D R/B 3.8 23:48:50 10° NE 23:53:12 24° E 23:54:54 20° ESE
SL-16 R/B 3.7 23:48:44 10° NNW 23:53:56 34° NE 23:59:05 10° ESE
Cosmos 1544 4.4 23:54:38 33° NW 23:54:38 33° NW 23:57:28 10° N
Sich 1 Rocket 3.5 23:55:31 86° NW 23:55:31 86° NW 23:59:53 10° N
